Weather in Durham

United Kingdom     54°47′02″N   1°32′35″W
temp.,
°C
wind,
m/s
gust,
m/s
humid.,
%
clouds,
%
prec.,
mm/h
press.,
hPa
HPBL,
m
27 january, wed
wed2700:00+3sw3595100 0.1 1006115
03:00+5w3793100 0.0 1006183
06:00+5wsw5119399 0.0 1007272
09:00+5w5139351 0.1 1009412
12:00+8nw5108359 0.1 1010926
15:00+6n378593 0.1 1011462
18:00+5n259297 0.1 1011280
21:00+4nne2491100 0.0 1012147
28 january, thu
thu2800:00+4ese3694100 0.4 1009387
03:00+3ese5997100 4.2 1004548
06:00+4ese51097100 10.5 1001480
09:00+4ese4898100 6.3 999371
12:00+5ese3598100 9.1 1000239
15:00+5nw2398100 0.7 1000157
18:00+4nw129679 0.7 100042
21:00+4sse1295100 0.1 99843
29 january, fri
fri2900:00+4s2598100 1.1 996158
03:00+5s2599100 4.1 994207
06:00+5nw2597100 4.2 994177
09:00+5nne129893 0.1 995103
12:00+5ene599597 0.9 997497
15:00+4ne5988100 0.4 1000583
18:00+4ne378198 0.6 1004533
21:00+3ene3778100 0.1 1004271
30 january, sat
sat3000:00+2e388159 0.1 1005238
03:00+1e497966 0.0 1004305
06:00+1e497983 0.1 1003411
09:00+2ene5975100 0.1 1004682
12:00+3ene6867100 0.1 10051221
15:00+3ene476699 0.0 1006970
18:00+3ne377299 0.1 1009401
21:00+1nne228034 0.0 101043
31 january, sun
sun3100:00+1ene128254 0.1 101026
03:00+1sw018390 0.0 101022
06:000s118563 0.0 100922
09:00+1sse2584100 0.0 1007149
12:00+3sse5873100 0.0 1005905
15:00+3sse4874100 0.0 1002860
18:00+1se41080100 0.0 1001579
21:00+1se51283100 0.0 1000610